Home   Weather   Barsinghausen   Past weeks

Flag for Germany Past Weather in Barsinghausen, Lower Saxony, Germany — Yesterday and Last 2 Weeks

Now
45 °F

Fog.


Feels Like: 39 °F
Forecast: 42 / 45 °F
Wind: 12 mph from West

Location: Wunstorf Airport

Current Time: Dec 9, 2016 at 6:56:33 am

Latest Report: Dec 9, 2016 at 6:20 am


Visibility: 2 mi

Pressure: 30.24 "Hg

Humidity: 93%

Dew Point: 43 °F

Location of BarsinghausenLocation

Past Weather in Barsinghausen — Graph

°F

Barsinghausen Temperature Yesterday

Maximum temperature yesterday: 52 °F (at 1:20 pm)
Minimum temperature yesterday: 45 °F (at 3:20 am)
Average temperature yesterday: 48 °F

High & Low Weather Summary for the Past Weeks

 TemperatureHumidityPressure
High52 °F (Dec 8, 1:20 pm)100% (Nov 24, 5:56 am)30.60 "Hg (Nov 24, 5:56 am)
Low18 °F (Dec 5, 4:20 am)46% (Dec 8, 7:20 pm)30.01 "Hg (Nov 26, 10:20 pm)
Average35 °F84%30.30 "Hg
* Reported Nov 24 5:20 am — Dec 9 5:20 am, Barsinghausen, Weather by CustomWeather, © 2016

Note: Actual official high and low records may vary slightly from our data, if they occured in-between our weather recording intervals... More about our weather records

Advertising

Barsinghausen Weather History for the Previous 24 Hours

Scroll right to see more
 ConditionsComfort  
Time TempWeatherWind HumidityBarometerVisibility
5:20 am
Fri, Dec 9
45 °FFog.14 mph93%30.24 "Hg2 mi
4:20 am45 °FQuite cool.14 mph93%30.24 "HgN/A
3:20 am45 °FQuite cool.14 mph93%30.24 "HgN/A
2:20 am45 °FQuite cool.15 mph93%30.24 "HgN/A
1:20 am45 °FQuite cool.15 mph87%30.24 "HgN/A
12:20 am45 °FQuite cool.15 mph87%30.27 "HgN/A
11:20 pm
Thu, Dec 8
48 °FCool.16 mph62%30.27 "HgN/A
10:20 pm48 °FCool.15 mph58%30.24 "HgN/A
9:20 pm48 °FCool.13 mph50%30.24 "HgN/A
8:20 pm48 °FCool.16 mph46%30.24 "HgN/A
7:20 pm48 °FCool.14 mph46%30.27 "HgN/A
6:20 pm46 °FCool.12 mph53%30.24 "HgN/A
5:20 pm50 °FCool.16 mph47%30.27 "HgN/A
4:59 pm50 °FPassing clouds.17 mph47%30.27 "HgN/A
4:20 pm50 °FPassing clouds.14 mph50%30.24 "HgN/A
3:20 pm50 °FPartly sunny.14 mph50%30.24 "HgN/A
2:20 pm52 °FPartly sunny.14 mph47%30.27 "HgN/A
1:20 pm52 °FPartly sunny.14 mph50%30.27 "HgN/A
12:20 pm50 °FPartly sunny.14 mph54%30.30 "HgN/A
11:20 am50 °FBroken clouds.13 mph54%30.30 "HgN/A
10:20 am48 °FPartly sunny.16 mph58%30.30 "HgN/A
9:20 am48 °FBroken clouds.18 mph58%30.30 "HgN/A
8:20 am46 °FBroken clouds.18 mph62%30.30 "HgN/A
7:20 am46 °FPassing clouds.17 mph62%30.30 "HgN/A
6:20 am46 °FPassing clouds.17 mph62%30.30 "HgN/A
Weather by CustomWeather, © 2016

See weather overviewHow to use our weather pages